Hourly Data Report for October 13, 2013

All times are specified in Local Standard Time (LST). Add 1 hour to adjust for Daylight Saving Time where and when it is observed.

FREDERICTON
NEW BRUNSWICK

45°52'08.000" N
66°32'14.000" W
20.70 m
8101505
71700
YFC

Download Data

Hourly Data (October 2013)
Hourly Data Report for October 13, 2013
Temp Definition
°C
Dew Point Temp Definition
°C
Rel Hum Definition
%
Wind Dir Definition
10's deg

Wind Spd Definition
km/h
Visibility Definition
km
Stn Press Definition
kPa
Hmdx Definition


Wind Chill Definition


Weather Definition


TIME
00:00 Legend Double Dagger 0.4 0.3 99 31 4 16.1 102.82     LegendNANA
01:00 Legend Double Dagger 0.0 -0.3 98   0 LegendMM 102.85     LegendNANA
02:00 Legend Double Dagger -0.9 -1.2 98   0 16.1 102.86     LegendNANA
03:00 Legend Double Dagger -1.0 -1.3 98 22 8 16.1 102.86   -4 LegendNANA
04:00 Legend Double Dagger -1.2 -1.3 99 20 5 16.1 102.87   -3 LegendNANA
05:00 Legend Double Dagger -1.2 -1.2 100 22 5 16.1 102.87   -3 LegendNANA
06:00 Legend Double Dagger -1.8 -2.0 99 20 4 LegendMM 102.86   -3 LegendNANA
07:00 Legend Double Dagger -0.8 -0.8 100   0 0.0 102.90     LegendNANA
08:00 Legend Double Dagger -0.1 LegendMM LegendMM 22 5 0.0 102.93   -2 LegendNANA
09:00 Legend Double Dagger 2.1 2.1 100 LegendMM 4 1.0 102.94     LegendNANA
10:00 Legend Double Dagger 5.4 5.1 98   0 16.1 102.94     LegendNANA
11:00 Legend Double Dagger 9.2 4.5 72 LegendMM 5 16.1 102.88     LegendNANA
12:00 Legend Double Dagger 11.6 4.9 63 LegendMM 4 9.7 102.84     LegendNANA
13:00 Legend Double Dagger 13.3 6.0 61 LegendMM 4 16.1 102.77     LegendNANA
14:00 Legend Double Dagger 14.7 5.7 55 12 5 16.1 102.73     LegendNANA
15:00 Legend Double Dagger 15.3 5.3 51 LegendMM 8 16.1 102.65     LegendNANA
16:00 Legend Double Dagger 15.0 4.8 50 LegendMM 4 16.1 102.61     LegendNANA
17:00 Legend Double Dagger 14.7 5.8 55 15 4 16.1 102.59     LegendNANA
18:00 Legend Double Dagger 9.5 7.0 84 16 8 16.1 102.57     LegendNANA
19:00 Legend Double Dagger 7.3 5.6 89 19 8 16.1 102.57     LegendNANA
20:00 Legend Double Dagger 7.1 5.1 87 19 9 16.1 102.58     LegendNANA
21:00 Legend Double Dagger 6.1 4.6 90 22 8 16.1 102.57     LegendNANA
22:00 Legend Double Dagger 5.2 4.5 95 19 11 LegendMM 102.57     LegendNANA
23:00 Legend Double Dagger 5.0 4.6 97 20 8 LegendMM 102.56     LegendNANA

Notes on Data Quality.

Legend

  • E = Estimated
  • M = Missing
  • NA = Not Available
  • ‡ = Partner data that is not subject to review by the National Climate Archives
Date modified: